| time (UTC) | temp F | wind direction | speed knots | gust knots | rain 1hr in | rain 24hr in | rain mn in | humidity % | barometer mb |
| 20260505153017 | 54 | 298 | 0.0 | 1.7 | 0.00 | 0.02 | 0.02 | 62 | 1002.1 |
| 20260505151516 | 54 | 232 | 0.0 | 0.9 | 0.00 | 0.02 | 0.02 | 64 | 1002.0 |
| 20260505124608 | 52 | 98 | 0.9 | 3.5 | 0.01 | 0.01 | 0.01 | 62 | 1001.2 |
| 20260505123057 | 54 | 198 | 0.9 | 4.3 | 0.00 | 0.00 | 0.00 | 63 | 1000.7 |
| 20260505121558 | 54 | 120 | 0.9 | 4.3 | 0.00 | 0.00 | 0.00 | 56 | 1000.7 |
| 20260505120056 | 54 | 108 | 0.0 | 0.9 | 0.00 | 0.00 | 0.00 | 67 | 1000.7 |
| 20260505114558 | 54 | 108 | 0.0 | 0.9 | 0.00 | 0.00 | 0.00 | 65 | 1000.6 |
| 20260505113105 | 54 | 108 | 0.0 | 0.0 | 0.00 | 0.00 | 0.00 | 64 | 1000.6 |
| 20260505111552 | 54 | 108 | 0.0 | 0.0 | 0.00 | 0.00 | 0.00 | 65 | 1000.6 |
| 20260505101552 | 55 | 117 | 0.0 | 0.0 | 0.00 | 0.00 | 0.00 | 58 | 1000.4 |
| 20260505100045 | 55 | 117 | 0.0 | 0.0 | 0.00 | 0.00 | 0.00 | 58 | 1000.5 |
| 20260505094544 | 56 | 117 | 0.0 | 2.6 | 0.00 | 0.00 | 0.00 | 57 | 1000.7 |
| 20260505093047 | 55 | 252 | 0.0 | 0.9 | 0.00 | 0.00 | 0.00 | 61 | 1000.9 |
| 20260505091550 | 56 | 136 | 0.0 | 1.7 | 0.00 | 0.00 | 0.00 | 62 | 1000.9 |
| 20260505090041 | 56 | 117 | 0.0 | 0.9 | 0.00 | 0.00 | 0.00 | 59 | 1001.0 |
| 20260505084539 | 56 | 117 | 0.0 | 0.9 | 0.00 | 0.00 | 0.00 | 58 | 1000.9 |
| 20260505083038 | 56 | 122 | 0.0 | 0.9 | 0.00 | 0.00 | 0.00 | 59 | 1001.0 |
| 20260505081536 | 56 | 116 | 0.0 | 0.9 | 0.00 | 0.00 | 0.00 | 59 | 1000.9 |
| 20260505080036 | 56 | 90 | 0.0 | 2.6 | 0.00 | 0.00 | 0.00 | 58 | 1000.8 |
| 20260505074533 | 56 | 105 | 0.0 | 2.6 | 0.00 | 0.00 | 0.00 | 58 | 1000.8 |
| 20260505073034 | 56 | 255 | 0.0 | 0.9 | 0.00 | 0.00 | 0.00 | 58 | 1000.6 |
| 20260505071534 | 57 | 347 | 0.0 | 0.9 | 0.00 | 0.00 | 0.00 | 59 | 1000.4 |
| 20260505070029 | 57 | 131 | 0.0 | 3.5 | 0.00 | 0.00 | 0.00 | 59 | 1000.4 |
| 20260505064526 | 57 | 342 | 2.6 | 7.8 | 0.00 | 0.00 | 0.00 | 57 | 1000.4 |
| 20260505063026 | 58 | 148 | 3.5 | 13.9 | 0.00 | 0.00 | 0.00 | 57 | 1000.3 |
| 20260505061523 | 58 | 159 | 1.7 | 6.1 | 0.00 | 0.00 | 0.00 | 58 | 1000.4 |
| 20260505060035 | 58 | 196 | 1.7 | 5.2 | 0.00 | 0.00 | 0.00 | 56 | 1000.3 |
| 20260505054520 | 58 | 197 | 1.7 | 7.8 | 0.00 | 0.00 | 0.00 | 57 | 1000.3 |
| 20260505053021 | 58 | 203 | 2.6 | 9.6 | 0.00 | 0.00 | 0.00 | 53 | 1000.2 |
| 20260505051524 | 59 | 129 | 0.0 | 3.5 | 0.00 | 0.00 | 0.00 | 53 | 1000.2 |
| 20260505041521 | 62 | 120 | 0.0 | 5.2 | 0.00 | 0.00 | 0.00 | 44 | 999.3 |
| 20260505040014 | 62 | 352 | 1.7 | 11.3 | 0.00 | 0.00 | 0.00 | 44 | 999.1 |
| 20260505034513 | 63 | 193 | 2.6 | 7.8 | 0.00 | 0.00 | 0.00 | 38 | 998.8 |
| 20260505033014 | 63 | 110 | 0.0 | 0.9 | 0.00 | 0.00 | 0.00 | 39 | 998.7 |
| 20260505031512 | 64 | 145 | 0.0 | 0.9 | 0.00 | 0.00 | 0.00 | 37 | 998.7 |
| 20260505030011 | 65 | 157 | 0.0 | 2.6 | 0.00 | 0.00 | 0.00 | 36 | 998.6 |
| 20260505024512 | 65 | 158 | 0.0 | 4.3 | 0.00 | 0.00 | 0.00 | 35 | 998.4 |
| 20260505023019 | 66 | 102 | 0.0 | 1.7 | 0.00 | 0.00 | 0.00 | 35 | 998.3 |
| 20260505021514 | 67 | 214 | 0.0 | 2.6 | 0.00 | 0.00 | 0.00 | 34 | 998.3 |
| 20260505020008 | 67 | 108 | 0.0 | 1.7 | 0.00 | 0.00 | 0.00 | 33 | 998.3 |
| 20260505014513 | 68 | 104 | 0.0 | 1.7 | 0.00 | 0.00 | 0.00 | 31 | 998.3 |
| 20260505013007 | 68 | 105 | 0.0 | 2.6 | 0.00 | 0.00 | 0.00 | 30 | 998.2 |
| 20260505011511 | 69 | 152 | 0.0 | 1.7 | 0.00 | 0.00 | 0.00 | 29 | 998.2 |
| 20260505010005 | 71 | 150 | 0.0 | 1.7 | 0.00 | 0.00 | 0.00 | 28 | 998.3 |
| 20260505004506 | 69 | 85 | 0.0 | 2.6 | 0.00 | 0.00 | 0.00 | 29 | 998.2 |
| 20260505003004 | 70 | 75 | 0.0 | 2.6 | 0.00 | 0.00 | 0.00 | 29 | 998.3 |
| 20260505001502 | 71 | 116 | 0.9 | 4.3 | 0.00 | 0.00 | 0.00 | 28 | 998.4 |
| 20260505000001 | 72 | 101 | 0.0 | 5.2 | 0.00 | 0.00 | 0.00 | 28 | 998.6 |
| 20260504234501 | 76 | 78 | 0.0 | 3.5 | 0.00 | 0.00 | 0.00 | 26 | 998.5 |
| 20260504233107 | 75 | 272 | 0.0 | 2.6 | 0.00 | 0.00 | 0.00 | 27 | 998.8 |
| 20260504231559 | 73 | 109 | 0.0 | 1.7 | 0.00 | 0.00 | 0.00 | 30 | 998.9 |
| 20260504230105 | 72 | 127 | 0.0 | 0.9 | 0.00 | 0.00 | 0.00 | 33 | 999.2 |
| 20260504224556 | 67 | 124 | 0.0 | 0.9 | 0.00 | 0.00 | 0.00 | 38 | 999.5 |
| 20260504223102 | 65 | 104 | 0.9 | 3.5 | 0.00 | 0.00 | 0.00 | 42 | 999.5 |
| 20260504221600 | 66 | 109 | 0.9 | 4.3 | 0.00 | 0.00 | 0.00 | 42 | 999.5 |
| 20260504220056 | 69 | 130 | 0.0 | 3.5 | 0.00 | 0.00 | 0.00 | 34 | 999.7 |
| 20260504214608 | 70 | 113 | 0.0 | 0.9 | 0.00 | 0.00 | 0.00 | 28 | 999.2 |
| 20260504213100 | 70 | 176 | 1.7 | 5.2 | 0.00 | 0.00 | 0.00 | 24 | 998.8 |
| 20260504211555 | 72 | 360 | 0.9 | 3.5 | 0.00 | 0.00 | 0.00 | 24 | 998.7 |
| 20260504210052 | 73 | 212 | 0.0 | 2.6 | 0.00 | 0.00 | 0.00 | 25 | 998.8 |
| 20260504204553 | 74 | 211 | 0.0 | 2.6 | 0.00 | 0.00 | 0.00 | 23 | 999.0 |
| 20260504203053 | 75 | 121 | 0.9 | 2.6 | 0.00 | 0.00 | 0.00 | 23 | 999.0 |
| 20260504201601 | 76 | 124 | 0.9 | 7.8 | 0.00 | 0.00 | 0.00 | 22 | 999.2 |
| 20260504200049 | 78 | 250 | 0.0 | 2.6 | 0.00 | 0.00 | 0.00 | 20 | 999.2 |
| 20260504194551 | 80 | 298 | 0.9 | 2.6 | 0.00 | 0.00 | 0.00 | 20 | 999.3 |
| 20260504193044 | 78 | 191 | 0.0 | 5.2 | 0.00 | 0.00 | 0.00 | 20 | 999.5 |
| 20260504191554 | 78 | 261 | 0.0 | 3.5 | 0.00 | 0.00 | 0.00 | 19 | 999.6 |
| 20260504190039 | 77 | 132 | 0.0 | 4.3 | 0.00 | 0.00 | 0.00 | 21 | 999.9 |
| 20260504184549 | 77 | 200 | 0.9 | 2.6 | 0.00 | 0.00 | 0.00 | 21 | 999.9 |
| 20260504183035 | 75 | 103 | 0.9 | 5.2 | 0.00 | 0.00 | 0.00 | 25 | 1000.1 |
| 20260504181536 | 75 | 266 | 1.7 | 5.2 | 0.00 | 0.00 | 0.00 | 24 | 1000.2 |
| 20260504180032 | 75 | 132 | 2.6 | 6.1 | 0.00 | 0.00 | 0.00 | 24 | 1000.5 |
| 20260504174531 | 75 | 292 | 0.9 | 5.2 | 0.00 | 0.00 | 0.00 | 25 | 1000.5 |
| 20260504173031 | 76 | 167 | 0.9 | 2.6 | 0.00 | 0.00 | 0.00 | 24 | 1000.7 |
| 20260504171525 | 75 | 136 | 0.0 | 3.5 | 0.00 | 0.00 | 0.00 | 32 | 1000.9 |